FW1093 Weather Reports


time (UTC)temp
F
wind
direction
speed
knots
gust
knots
rain 1hr
in
rain 24hr
in
rain mn
in
humidity
%
barometer
mb
20260509150315 56 115 0.0 0.9 0.00 0.03 0.02 83 1012.9
20260509145332 56 116 0.0 0.9 0.00 0.03 0.02 84 1013.3
20260509144320 56 212 0.0 0.0 0.00 0.03 0.02 85 1012.9
20260509143329 55 212 0.0 0.0 0.00 0.03 0.02 88 1012.7
20260509142319 54 212 0.0 0.0 0.00 0.03 0.02 87 1012.9
20260509141352 54 212 0.0 0.0 0.00 0.03 0.02 87 1013.3
20260509140321 53 212 0.0 0.9 0.00 0.03 0.02 87 1012.8
20260509135357 53 324 0.0 0.0 0.00 0.03 0.02 89 1013.0
20260509134324 52 338 0.0 0.9 0.00 0.03 0.02 89 1013.1
20260509133338 51 7 0.0 1.7 0.00 0.03 0.02 89 1012.8
20260509132334 51 289 0.0 1.7 0.00 0.03 0.02 91 1013.0
20260509131320 50 276 0.0 0.9 0.00 0.03 0.02 91 1013.2
20260509130330 50 288 0.0 0.9 0.00 0.03 0.02 91 1013.5
20260509125316 50 274 0.0 0.0 0.00 0.03 0.02 91 1013.8
20260509124324 49 274 0.0 0.0 0.00 0.03 0.02 91 1013.8
20260509123313 49 276 0.0 1.7 0.00 0.03 0.02 92 1014.0
20260509122321 48 257 0.0 1.7 0.00 0.03 0.02 93 1013.7
20260509121355 48 283 0.0 0.0 0.00 0.03 0.02 94 1013.7
20260509120323 48 283 0.0 0.9 0.00 0.03 0.02 94 1014.0
20260509115312 47 283 0.0 0.9 0.00 0.03 0.02 94 1013.8
20260509114329 47 282 0.0 0.9 0.01 0.03 0.02 94 1013.9
20260509113337 47 281 0.0 0.9 0.01 0.03 0.02 95 1013.9
20260509112326 47 282 0.0 0.0 0.01 0.03 0.02 94 1013.9
20260509111315 47 281 0.0 0.9 0.01 0.03 0.02 94 1013.8
20260509110321 47 281 0.0 0.9 0.01 0.03 0.02 95 1013.8
20260509105329 47 281 0.0 0.9 0.01 0.03 0.02 95 1013.6
20260509104320 46 282 0.0 0.9 0.00 0.02 0.01 95 1013.5
20260509103314 46 329 0.0 0.0 0.00 0.02 0.01 94 1013.4
20260509102322 46 329 0.0 0.9 0.00 0.02 0.01 94 1013.5
20260509101312 46 319 0.0 0.0 0.00 0.02 0.01 94 1013.4
20260509100329 46 319 0.0 0.0 0.00 0.02 0.01 94 1013.7
20260509095344 45 319 0.0 0.0 0.00 0.02 0.01 94 1013.6
20260509094313 45 319 0.0 0.0 0.00 0.02 0.01 94 1013.4
20260509093322 45 319 0.0 0.0 0.00 0.02 0.01 93 1013.1
20260509092312 45 319 0.0 0.0 0.00 0.02 0.01 93 1013.3
20260509091330 45 319 0.0 0.0 0.00 0.02 0.01 93 1013.4
20260509090319 45 319 0.0 0.0 0.01 0.02 0.01 93 1013.5
20260509085327 46 319 0.0 0.0 0.01 0.02 0.01 92 1013.4
20260509084317 46 319 0.0 0.0 0.01 0.02 0.01 92 1013.5
20260509083326 46 319 0.0 0.0 0.01 0.02 0.01 91 1013.5
20260509082315 46 319 0.0 0.0 0.01 0.02 0.01 91 1013.5
20260509081325 46 319 0.0 0.0 0.01 0.02 0.01 90 1013.5
20260509080315 46 319 0.0 0.0 0.00 0.01 0.00 90 1013.5
20260509075331 46 319 0.0 0.0 0.00 0.01 0.00 90 1013.4
20260509073328 46 319 0.0 0.0 0.00 0.01 0.00 89 1013.2
20260509072330 46 319 0.0 0.0 0.00 0.01 0.00 89 1013.1
20260509071318 46 319 0.0 0.0 0.00 0.01 0.00 89 1013.2
20260509070351 46 319 0.0 0.0 0.00 0.01 0.00 88 1013.0
20260509065320 46 319 0.0 0.0 0.00 0.01 0.00 89 1013.0
20260509064337 46 319 0.0 0.0 0.00 0.01 0.00 88 1013.3
20260509063327 46 319 0.0 0.0 0.00 0.01 0.00 88 1013.4
20260509062336 46 319 0.0 0.0 0.00 0.01 0.00 88 1013.5
20260509061326 46 319 0.0 0.0 0.00 0.01 0.00 88 1013.6
20260509060315 45 319 0.0 0.0 0.00 0.01 0.00 88 1013.9
20260509055323 46 319 0.0 0.0 0.00 0.01 0.00 87 1013.8
20260509054313 46 319 0.0 0.0 0.00 0.01 0.00 87 1013.8
20260509053328 46 319 0.0 0.0 0.00 0.01 0.00 86 1013.7
20260509052315 46 319 0.0 0.0 0.00 0.01 0.00 86 1013.7
20260509051322 46 319 0.0 0.0 0.00 0.01 0.00 86 1013.8
20260509050316 46 319 0.0 0.0 0.00 0.01 0.00 86 1013.8
20260509045347 46 319 0.0 0.0 0.00 0.01 0.00 86 1013.8
20260509044320 45 319 0.0 0.0 0.00 0.01 0.00 85 1013.9
20260509043337 45 319 0.0 0.0 0.00 0.01 0.00 85 1014.0
20260509042344 45 319 0.0 0.0 0.00 0.01 0.00 85 1014.0
20260509041331 45 319 0.0 0.0 0.00 0.01 0.00 85 1014.0
20260509040319 45 319 0.0 0.0 0.00 0.01 0.00 85 1014.1
20260509035327 45 319 0.0 0.0 0.00 0.01 0.01 83 1014.0
20260509034336 45 319 0.0 0.0 0.00 0.01 0.01 84 1013.9
20260509033327 45 319 0.0 0.0 0.00 0.01 0.01 83 1013.9
20260509032317 45 319 0.0 0.0 0.00 0.01 0.01 82 1013.7
20260509031326 45 319 0.0 0.0 0.00 0.01 0.01 82 1013.8
20260509030335 44 319 0.0 0.0 0.00 0.01 0.01 83 1013.5
20260509025324 44 319 0.0 0.0 0.00 0.01 0.01 82 1013.7
20260509024312 44 319 0.0 0.0 0.00 0.01 0.01 81 1013.4
20260509023319 44 319 0.0 0.0 0.00 0.01 0.01 82 1013.3
20260509022328 43 319 0.0 0.0 0.00 0.01 0.01 81 1013.5
20260509021343 43 319 0.0 0.0 0.00 0.01 0.01 81 1013.5
20260509020330 43 320 0.0 0.0 0.00 0.01 0.01 79 1013.5
20260509015319 44 319 0.0 0.0 0.00 0.01 0.01 79 1013.4
20260509014328 44 319 0.0 0.0 0.00 0.01 0.01 77 1013.5
20260509013334 45 319 0.0 0.0 0.00 0.01 0.01 76 1013.3
20260509012323 45 319 0.0 0.0 0.00 0.01 0.01 76 1013.2
20260509011312 46 319 0.0 0.0 0.00 0.01 0.01 73 1013.2
20260509010345 46 319 0.0 0.0 0.00 0.01 0.01 74 1012.9
20260509005331 47 319 0.0 0.0 0.00 0.01 0.01 73 1012.7
20260509004337 48 319 0.0 0.0 0.00 0.01 0.01 74 1012.6
20260509003327 48 319 0.0 0.0 0.00 0.01 0.01 72 1012.4
20260509002316 49 319 0.0 0.0 0.00 0.01 0.01 72 1012.2
20260509001350 50 319 0.0 0.0 0.00 0.01 0.01 70 1012.1
20260509000318 51 319 0.0 0.0 0.00 0.01 0.01 69 1012.3
20260508235316 52 319 0.0 0.0 0.00 0.01 0.01 67 1012.1
20260508234326 53 319 0.0 0.0 0.00 0.01 0.01 64 1012.0
20260508233316 55 319 0.0 0.0 0.00 0.01 0.01 62 1011.8
20260508232332 56 319 0.0 0.0 0.00 0.01 0.01 56 1011.6
20260508231320 56 319 0.0 0.0 0.00 0.01 0.01 54 1011.5
20260508230357 57 319 0.0 0.0 0.00 0.01 0.01 52 1011.5
20260508225323 58 318 0.0 1.7 0.00 0.01 0.01 50 1011.4
20260508224313 59 342 0.0 1.7 0.00 0.01 0.01 49 1011.1
20260508223323 60 120 0.0 2.6 0.00 0.01 0.01 49 1011.1
20260508222314 61 290 0.0 1.7 0.00 0.01 0.01 49 1011.0
20260508221322 60 324 0.0 3.5 0.00 0.01 0.01 48 1011.2
20260508220337 60 278 0.0 2.6 0.00 0.01 0.01 53 1011.2
20260508215326 59 289 0.0 2.6 0.00 0.01 0.01 53 1011.2
20260508214321 57 77 0.9 3.5 0.00 0.01 0.01 56 1011.1
20260508213330 58 30 0.9 4.3 0.00 0.01 0.01 54 1011.4
20260508212338 58 206 0.0 2.6 0.00 0.01 0.01 55 1011.3
20260508211328 58 288 0.0 2.6 0.00 0.01 0.01 54 1011.4
20260508210337 59 1 1.7 3.5 0.00 0.01 0.01 55 1011.2
20260508205325 60 281 0.0 2.6 0.00 0.01 0.01 57 1011.0
20260508204314 58 180 0.0 4.3 0.00 0.01 0.01 57 1011.2
20260508203350 57 49 0.9 4.3 0.00 0.01 0.01 57 1011.0
20260508202317 56 60 0.9 2.6 0.00 0.01 0.01 62 1011.2
20260508201327 55 146 0.9 2.6 0.01 0.01 0.01 62 1011.2
20260508200316 54 291 1.7 5.2 0.01 0.01 0.01 64 1011.4
20260508195333 53 288 0.9 3.5 0.01 0.01 0.01 67 1011.4
20260508194327 52 320 0.0 1.7 0.01 0.01 0.01 74 1011.4
20260508193315 51 261 0.0 1.7 0.01 0.01 0.01 75 1011.6
20260508192328 50 352 0.9 6.1 0.01 0.01 0.01 72 1011.6
20260508191317 52 306 1.7 7.0 0.00 0.00 0.00 69 1012.3
20260508190326 54 70 1.7 5.2 0.00 0.00 0.00 58 1011.8
20260508185315 57 293 0.9 7.8 0.00 0.00 0.00 49 1010.9
20260508184330 58 22 0.9 3.5 0.00 0.00 0.00 47 1010.6
20260508183316 60 39 1.7 2.6 0.00 0.00 0.00 46 1010.4
20260508182325 59 286 0.9 3.5 0.00 0.00 0.00 45 1010.7
20260508181313 60 288 0.9 4.3 0.00 0.00 0.00 47 1010.7
20260508180350 58 311 0.9 4.3 0.00 0.00 0.00 50 1011.0
20260508175316 57 23 0.9 6.1 0.00 0.00 0.00 49 1011.2
20260508174326 57 160 0.9 4.3 0.00 0.00 0.00 47 1011.4
20260508173315 57 155 2.6 11.3 0.00 0.00 0.00 45 1011.5
20260508172322 58 23 1.7 6.1 0.00 0.00 0.00 46 1011.3
20260508171357 58 284 0.9 2.6 0.00 0.00 0.00 45 1011.1
20260508170326 57 189 1.7 6.1 0.00 0.00 0.00 46 1011.3
20260508165314 56 293 0.9 3.5 0.00 0.00 0.00 47 1011.3
20260508164333 57 212 0.0 2.6 0.00 0.00 0.00 45 1011.3
20260508163328 57 97 1.7 3.5 0.00 0.00 0.00 43 1011.3
20260508162324 58 9 0.9 5.2 0.00 0.00 0.00 45 1011.2
20260508161315 59 36 1.7 5.2 0.00 0.00 0.00 43 1011.4
20260508160331 58 308 1.7 5.2 0.00 0.00 0.00 45 1011.3
20260508155322 59 306 0.9 2.6 0.00 0.00 0.00 41 1011.4
20260508154331 59 299 0.9 5.2 0.00 0.00 0.00 44 1011.6
20260508153321 59 18 1.7 4.3 0.00 0.00 0.00 44 1011.7
20260508152337 59 321 0.9 3.5 0.00 0.00 0.00 47 1011.7
20260508151352 59 323 0.9 3.5 0.00 0.00 0.00 48 1011.4